Weather History for Lee's Summit, MO

Change the Weather History Date:

Tuesday, November 20, 2012

  Actual Average (KMKC) Record (KMKC)
Temperature  
Mean Temperature 52 °F -  
Max Temperature 63 °F 51 °F 73 °F (2003)
Min Temperature 41 °F 34 °F 19 °F (2000)
Degree Days  
Heating Degree Days 13    
Growing Degree Days 2 (Base 50)    
Moisture  
Dew Point 41 °F    
Average Humidity 68    
Maximum Humidity 93    
Minimum Humidity 46    
Precipitation  
Precipitation 0.00 in - - ()
Sea Level Pressure  
Sea Level Pressure 30.18 in    
Wind  
Wind Speed 4 mph (West)    
Max Wind Speed 8 mph    
Max Gust Speed -    
Visibility 10 miles    
Events      
Averages and records for this station are not official NWS values.
T = Trace of Precipitation, MM = Missing Value Source: NWS Daily Summary

Daily Weather History Graph

Daily Weather History Graph

Search for Another Location

Airport:

Trip Planner

Search our weather history database for the weather conditions in past years. The results will help you decide how hot, cold, wet, or windy it might be!

Date:

Astronomy

Nov. 20, 2012 Rise Set
Actual Time 7:06 AM CST 4:59 PM CST
Civil Twilight 6:37 AM CST 5:28 PM CST
Nautical Twilight 6:04 AM CST 6:01 PM CST
Astronomical Twilight 5:33 AM CST 6:33 PM CST
Moon 12:42 PM CST (11/20) No Moon Set
Length of Visible Light 10h 51m
Length of Day
9h 53m
First Quarter, 51% of the Moon is Illuminated
Nov 20
First Quarter
Nov 28
Full
Dec 6
Last Quarter
Dec 13
New
Dec 19
First Quarter

Hourly Weather History & Observations

Time (CST) Temp. Windchill Dew Point Humidity Pressure Visibility Wind Dir Wind Speed Gust Speed Precip Events Conditions
12:53 AM 48.9 °F - 45.0 °F 86% 30.10 in 10.0 mi West 4.6 mph - N/A   Clear
1:53 AM 48.0 °F - 44.1 °F 86% 30.12 in 10.0 mi West 3.5 mph - N/A   Clear
2:53 AM 44.1 °F 40.8 °F 42.1 °F 93% 30.13 in 8.0 mi WSW 5.8 mph - N/A   Clear
3:53 AM 45.0 °F 42.6 °F 41.0 °F 86% 30.13 in 10.0 mi West 4.6 mph - N/A   Clear
4:53 AM 43.0 °F 39.5 °F 39.9 °F 89% 30.14 in 10.0 mi West 5.8 mph - N/A   Clear
5:53 AM 42.1 °F 38.4 °F 39.0 °F 89% 30.16 in 10.0 mi West 5.8 mph - N/A   Clear
6:53 AM 42.1 °F 38.4 °F 37.9 °F 85% 30.17 in 10.0 mi West 5.8 mph - N/A   Clear
7:53 AM 41.0 °F 38.0 °F 37.0 °F 86% 30.19 in 10.0 mi West 4.6 mph - N/A   Clear
8:53 AM 46.0 °F 41.9 °F 39.0 °F 76% 30.21 in 10.0 mi WNW 8.1 mph - N/A   Clear
9:53 AM 50.0 °F - 39.9 °F 68% 30.20 in 10.0 mi NW 8.1 mph - N/A   Clear
10:53 AM 55.0 °F - 41.0 °F 59% 30.21 in 10.0 mi NW 5.8 mph - N/A   Clear
11:53 AM 57.9 °F - 41.0 °F 53% 30.20 in 10.0 mi NNW 6.9 mph - N/A   Clear
12:53 PM 60.1 °F - 41.0 °F 49% 30.19 in 10.0 mi North 8.1 mph - N/A   Clear
1:53 PM 62.1 °F - 41.0 °F 46% 30.17 in 10.0 mi NW 4.6 mph - N/A   Clear
2:53 PM 63.0 °F - 42.1 °F 46% 30.17 in 10.0 mi Calm Calm - N/A   Clear
3:53 PM 62.1 °F - 43.0 °F 50% 30.18 in 10.0 mi WNW 3.5 mph - N/A   Clear
4:53 PM 60.1 °F - 41.0 °F 49% 30.18 in 10.0 mi Calm Calm - N/A   Clear
5:53 PM 57.9 °F - 39.9 °F 51% 30.19 in 10.0 mi Calm Calm - N/A   Clear
6:53 PM 54.0 °F - 39.9 °F 59% 30.21 in 10.0 mi Calm Calm - N/A   Clear
7:53 PM 52.0 °F - 39.9 °F 63% 30.22 in 10.0 mi Calm Calm - N/A   Clear
8:53 PM 53.1 °F - 39.9 °F 61% 30.22 in 10.0 mi South 4.6 mph - N/A   Clear
9:53 PM 53.1 °F - 39.9 °F 61% 30.22 in 10.0 mi SSE 4.6 mph - N/A   Clear
10:53 PM 48.9 °F - 39.9 °F 71% 30.22 in 10.0 mi Calm Calm - N/A   Clear
11:53 PM 48.9 °F - 39.9 °F 71% 30.22 in 10.0 mi South 4.6 mph - N/A   Clear